Tracking 30922 objects as of 2-Jul-2025
HD Live streaming from Space Station
objects crossing your sky now

CZ-2C R/B

Track CZ-2C R/B now!
10-day predictions


NORAD ID: 37766
Int'l Code: 2011-039B
Perigee: 638.9 km
Apogee: 699.3 km
Inclination: 98.1 °
Period: 98.0 minutes
Semi major axis: 7040 km
RCS: 8.199 m2 (large)
Launch date: July 29, 2011
Source: People's Republic of China (PRC)
Launch site: Jiuquan Satellite Launch Center, China (JSC)

Note: This is a ROCKET BODY
Your satellite tracking list
Your tracking list is empty




NASA's NSSDC Master Catalog

Two Line Element Set (TLE):
1 37766U 11039B   25182.70375404  .00000483  00000-0  88631-4 0  9996
2 37766  98.1400  76.9775 0042889 345.6327  14.3656 14.69713948745301
Source of the keplerian elements: AFSPC